This demonstration page uses our WeatherBlox Daily Observations layout. Learn more.

Left ArrowRight Arrow

53.62937, 11.41316

Hourly Observations for May 18, 2021

Temp ( °F °C ) Dew Point ( °F °C ) Humidity (%) Winds ( mph kmh ) Pressure ( in mb ) Visibility ( mi km ) Precip ( " mm )
5:50 am 05:50 Mostly Cloudy 48 9 45 7 87 87 WSW 3 6 29.77 1008 30 48 N/A
6:20 am 06:20 Mostly Cloudy 48 9 45 7 87 87 WSW 3 6 29.77 1008 30 48 N/A
6:50 am 06:50 Partly Cloudy 48 9 45 7 87 87 VRB 1 2 29.80 1009 30 48 N/A
7:20 am 07:20 Mostly Sunny 50 10 45 7 82 82 WSW 3 6 29.80 1009 7 11 N/A
7:50 am 07:50 Mostly Sunny 50 10 45 7 82 82 SW 8 13 29.80 1009 30 48 N/A
8:20 am 08:20 Partly Cloudy 52 11 45 7 77 77 SW 9 15 29.80 1009 30 48 N/A
8:50 am 08:50 Partly Cloudy 52 11 45 7 77 77 SW 7 11 29.80 1009 30 48 N/A
9:20 am 09:20 Partly Cloudy 52 11 43 6 72 72 SW 6 9 29.83 1010 30 48 N/A
9:50 am 09:50 Mostly Cloudy 54 12 45 7 72 72 SW 7 11 29.83 1010 30 48 N/A
10:20 am 10:20 Partly Cloudy 54 12 45 7 72 72 SW 6 9 29.83 1010 30 48 N/A
10:50 am 10:50 Mostly Cloudy 55 13 43 6 63 63 SW 10 17 29.83 1010 30 48 N/A
11:20 am 11:20 Mostly Cloudy 55 13 46 8 72 72 SW 9 15 29.83 1010 30 48 N/A
11:50 am 11:50 Mostly Cloudy 57 14 45 7 63 63 SW 8 13 29.83 1010 30 48 N/A
12:20 pm 12:20 Mostly Cloudy 55 13 43 6 63 63 SW 7 11 29.83 1010 30 48 N/A
12:50 pm 12:50 Mostly Cloudy 54 12 43 6 67 67 SW 9 15 29.83 1010 30 48 N/A
1:20 pm 13:20 Mostly Cloudy 54 12 43 6 67 67 WSW 7 11 29.83 1010 30 48 N/A
1:50 pm 13:50 Partly Cloudy 55 13 45 7 67 67 SW 8 13 29.86 1011 30 48 N/A
2:20 pm 14:20 Partly Cloudy 57 14 43 6 59 59 WSW 7 11 29.86 1011 30 48 N/A
2:50 pm 14:50 Partly Cloudy 57 14 45 7 63 63 SSW 10 17 29.86 1011 30 48 N/A
3:20 pm 15:20 Partly Cloudy 57 14 43 6 59 59 SSW 12 19 29.86 1011 30 48 N/A
3:50 pm 15:50 Partly Cloudy 57 14 45 7 63 63 SW 9 15 29.86 1011 30 48 N/A
4:20 pm 16:20 Mostly Sunny 57 14 46 8 67 67 WSW 6 9 29.86 1011 30 48 N/A
4:50 pm 16:50 Partly Cloudy with Showers Nearby 57 14 45 7 63 63 WSW 5 7 29.86 1011 30 48 N/A
5:20 pm 17:20 Partly Cloudy with Showers Nearby 55 13 45 7 67 67 WSW 7 11 29.86 1011 30 48 N/A
5:50 pm 17:50 Partly Cloudy with Showers Nearby 57 14 45 7 63 63 W 3 6 29.86 1011 30 48 N/A
6:20 pm 18:20 Mostly Sunny 57 14 45 7 63 63 WSW 5 7 29.86 1011 30 48 N/A
6:50 pm 18:50 Partly Cloudy with Showers Nearby 57 14 45 7 63 63 SW 5 7 29.86 1011 30 48 N/A
7:20 pm 19:20 Mostly Sunny 55 13 45 7 67 67 SW 5 7 29.86 1011 30 48 N/A
7:50 pm 19:50 Mostly Sunny 55 13 45 7 67 67 S 5 7 29.86 1011 30 48 N/A
8:20 pm 20:20 Partly Cloudy 55 13 45 7 67 67 VRB 2 4 29.86 1011 30 48 N/A
8:50 pm 20:50 Partly Cloudy with Light Showers 54 12 46 8 77 77 VRB 1 2 29.89 1012 30 48 N/A
9:20 pm 21:20 Partly Cloudy with Showers Nearby 52 11 48 9 88 88 VRB 1 2 29.89 1012 30 48 N/A
9:50 pm 21:50 Partly Cloudy with Showers Nearby 52 11 46 8 82 82 VRB 2 4 29.89 1012 30 48 N/A

Powered by AerisWeather